User: anonymous   Login
Location: Moscow
(38.8570°N, 84.2291°W)
Time: 22:52:44
(UTC+00:00)
Language:

Gurwin Techsat 1B - Orbit

View from above orbital plane
View from above orbital plane
View from above satellite
View from above satellite

Ground track
Ground track

The orbit is defined by the following mean orbital elements,

1 25397U          26071.54984197 +.00000000 +00000-0 +73993-4 0 00007
2 25397  99.0029  61.8925 0002134 115.0247 245.1152 14.24407055    00
Epoch (UTC): 12 March 2026 13:11:46
Eccentricity: 0.0002134
inclination: 99.0029°
perigee height: 809 km
apogee height: 812 km
right ascension of ascending node: 61.8925°
argument of perigee: 115.0247°
revolutions per day: 14.24407055
mean anomaly at epoch: 245.1152°

The dashed part of the orbit path shows where the satellite is in the earth's shadow,  

DLR